{"data":{"norad_id":48971,"epoch":"2026-05-25T04:44:31.085664Z","epoch_age_seconds":61067,"freshness":"FRESH","line1":"1 48971U 21060E   26145.19758201 -.00000034  00000+0 -12285-3 0  9998","line2":"2 48971  87.9105 233.3400 0001926 100.6516 259.4832 13.16592509236569","mean_motion":13.16592509,"eccentricity":0.0001926,"inclination_deg":87.9105,"raan_deg":233.34,"arg_perigee_deg":100.6516,"mean_anomaly_deg":259.4832,"bstar":-0.00012285,"rev_number":23656,"period_min":109.37324875817,"perigee_km":1196.3042542037,"apogee_km":1199.2224910272,"semimajor_km":7575.9003726154,"source":"CELESTRAK","updated_at":"2026-05-25T13:38:22.450193Z"}}